FW2998 Weather Reports


time (UTC)temp
C
wind
direction
speed
KPH
gust
KPH
rain 1hr
cm
rain 24hr
cm
rain mn
cm
humidity
%
barometer
mb
20260901220045 36 0 0.0 0.0 0.00 0.00 0.00 49 1017.1
20260901215525 36 0 0.0 0.0 0.00 0.00 0.00 50 1017.1
20260901215025 37 0 0.0 0.0 0.00 0.00 0.00 48 1017.0
20260901214557 37 0 0.0 0.0 0.00 0.00 0.00 48 1017.1
20260901214025 37 0 0.0 0.0 0.00 0.00 0.00 50 1017.2
20260901213519 37 0 0.0 0.0 0.00 0.00 0.00 47 1017.1
20260901213047 37 0 0.0 0.0 0.00 0.00 0.00 50 1017.1
20260901212525 36 0 0.0 0.0 0.00 0.00 0.00 50 1017.1
20260901212026 36 0 0.0 0.0 0.00 0.00 0.00 50 1017.1
20260901211542 36 0 0.0 0.0 0.00 0.00 0.00 49 1017.1
20260901211024 36 0 0.0 0.0 0.00 0.00 0.00 49 1017.1
20260901210526 36 0 0.0 0.0 0.00 0.00 0.00 50 1017.1
20260901210049 36 0 0.0 0.0 0.00 0.00 0.00 49 1017.0
20260901205525 36 0 0.0 0.0 0.00 0.00 0.00 52 1017.2
20260901205024 35 0 0.0 0.0 0.00 0.00 0.00 50 1017.2
20260901204546 35 0 0.0 0.0 0.00 0.00 0.00 49 1017.2
20260901204028 35 0 0.0 0.0 0.00 0.00 0.00 49 1017.3
20260901203524 35 0 0.0 0.0 0.00 0.00 0.00 52 1017.3
20260901203046 35 0 0.0 0.0 0.00 0.00 0.00 54 1017.3
20260901202525 35 0 0.0 0.0 0.00 0.00 0.00 56 1017.4
20260901202026 34 0 0.0 0.0 0.00 0.00 0.00 56 1017.4
20260901201540 34 0 0.0 0.0 0.00 0.00 0.00 57 1017.5
20260901201025 34 0 0.0 0.0 0.00 0.00 0.00 55 1017.5
20260901200526 34 0 0.0 0.0 0.00 0.00 0.00 53 1017.5
20260901200048 33 0 0.0 0.0 0.00 0.00 0.00 57 1017.5
20260901195523 34 0 0.0 0.0 0.00 0.00 0.00 57 1017.6
20260901195023 34 0 0.0 0.0 0.00 0.00 0.00 57 1017.6
20260901194553 34 0 0.0 0.0 0.00 0.00 0.00 54 1017.7
20260901194023 34 0 0.0 0.0 0.00 0.00 0.00 53 1017.7
20260901193523 34 0 0.0 0.0 0.00 0.00 0.00 56 1017.8
20260901193044 34 0 0.0 0.0 0.00 0.00 0.00 54 1017.8
20260901192524 33 0 0.0 0.0 0.00 0.00 0.00 56 1017.8
20260901192025 34 0 0.0 0.0 0.00 0.00 0.00 58 1017.9
20260901191550 34 0 0.0 0.0 0.00 0.00 0.00 57 1018.0
20260901191022 34 0 0.0 0.0 0.00 0.00 0.00 57 1018.0
20260901190529 35 0 0.0 0.0 0.00 0.00 0.00 58 1018.0
20260901190051 35 0 0.0 0.0 0.00 0.00 0.00 57 1018.0
20260901185526 34 0 0.0 0.0 0.00 0.00 0.00 57 1018.0
20260901185025 34 0 0.0 0.0 0.00 0.00 0.00 56 1018.2
20260901184550 33 0 0.0 0.0 0.00 0.00 0.00 54 1018.2
20260901184025 34 0 0.0 0.0 0.00 0.00 0.00 55 1018.3
20260901183525 34 0 0.0 0.0 0.00 0.00 0.00 57 1018.3
20260901183101 34 0 0.0 0.0 0.00 0.00 0.00 57 1018.3
20260901182526 33 0 0.0 0.0 0.00 0.00 0.00 58 1018.4
20260901182024 33 0 0.0 0.0 0.00 0.00 0.00 63 1018.4
20260901181544 33 0 0.0 0.0 0.00 0.00 0.00 60 1018.5
20260901181023 34 0 0.0 0.0 0.00 0.00 0.00 60 1018.6
20260901180528 34 0 0.0 0.0 0.00 0.00 0.00 58 1018.7
20260901180045 34 0 0.0 0.0 0.00 0.00 0.00 59 1018.7
20260901175528 33 0 0.0 0.0 0.00 0.00 0.00 60 1018.8
20260901175025 33 0 0.0 0.0 0.00 0.00 0.00 60 1018.8
20260901174545 33 0 0.0 0.0 0.00 0.00 0.00 60 1018.7
20260901174019 33 0 0.0 0.0 0.00 0.00 0.00 59 1018.8
20260901173529 33 0 0.0 0.0 0.00 0.00 0.00 60 1018.9
20260901173042 33 0 0.0 0.0 0.00 0.00 0.00 59 1019.0
20260901172526 33 0 0.0 0.0 0.00 0.00 0.00 60 1019.1
20260901172026 33 0 0.0 0.0 0.00 0.00 0.00 61 1019.1
20260901171547 32 0 0.0 0.0 0.00 0.00 0.00 63 1019.2
20260901171023 33 0 0.0 0.0 0.00 0.00 0.00 63 1019.2
20260901170519 33 0 0.0 0.0 0.00 0.00 0.00 61 1019.2
20260901170044 33 0 0.0 0.0 0.00 0.00 0.00 62 1019.3
20260901165522 32 0 0.0 0.0 0.00 0.00 0.00 63 1019.4
20260901165026 33 0 0.0 0.0 0.00 0.00 0.00 62 1019.4
20260901164541 33 0 0.0 0.0 0.00 0.00 0.00 61 1019.5
20260901164026 33 0 0.0 0.0 0.00 0.00 0.00 63 1019.5
20260901163526 32 0 0.0 0.0 0.00 0.00 0.00 62 1019.6
20260901163054 32 0 0.0 0.0 0.00 0.00 0.00 63 1019.5
20260901162521 32 0 0.0 0.0 0.00 0.00 0.00 62 1019.7
20260901162027 32 0 0.0 0.0 0.00 0.00 0.00 64 1019.7
20260901161544 32 0 0.0 0.0 0.00 0.00 0.00 65 1019.7
20260901161026 32 0 0.0 0.0 0.00 0.00 0.00 62 1019.8
20260901160527 32 0 0.0 0.0 0.00 0.00 0.00 66 1019.9
20260901160044 32 0 0.0 0.0 0.00 0.00 0.00 63 1019.9
20260901155523 32 0 0.0 0.0 0.00 0.00 0.00 63 1019.9
20260901155027 32 0 0.0 0.0 0.00 0.00 0.00 63 1019.9
20260901154608 32 0 0.0 0.0 0.00 0.00 0.00 62 1020.0
20260901154026 32 0 0.0 0.0 0.00 0.00 0.00 65 1020.1
20260901153527 32 0 0.0 0.0 0.00 0.00 0.00 64 1020.1
20260901153047 33 0 0.0 0.0 0.00 0.00 0.00 64 1020.1
20260901152523 33 0 0.0 0.0 0.00 0.00 0.00 66 1020.0
20260901152025 32 0 0.0 0.0 0.00 0.00 0.00 63 1020.1
20260901151544 32 0 0.0 0.0 0.00 0.00 0.00 66 1020.1
20260901151025 32 0 0.0 0.0 0.00 0.00 0.00 65 1020.1
20260901150523 32 0 0.0 0.0 0.00 0.00 0.00 71 1020.1
20260901150054 32 0 0.0 0.0 0.00 0.00 0.00 69 1020.1
20260901145525 31 0 0.0 0.0 0.00 0.00 0.00 68 1020.1
20260901145026 31 0 0.0 0.0 0.00 0.00 0.00 69 1020.2
20260901144543 31 0 0.0 0.0 0.00 0.00 0.00 72 1020.3
20260901144024 31 0 0.0 0.0 0.00 0.00 0.00 71 1020.2
20260901143525 31 0 0.0 0.0 0.00 0.00 0.00 73 1020.3
20260901143049 31 0 0.0 0.0 0.00 0.00 0.00 73 1020.3
20260901142522 30 0 0.0 0.0 0.00 0.00 0.00 73 1020.3
20260901142023 31 0 0.0 0.0 0.00 0.00 0.00 74 1020.3
20260901141555 30 0 0.0 0.0 0.00 0.00 0.00 75 1020.2
20260901141025 30 0 0.0 0.0 0.00 0.00 0.00 77 1020.2
20260901140523 30 0 0.0 0.0 0.00 0.00 0.00 78 1020.2
20260901140053 30 0 0.0 0.0 0.00 0.00 0.00 78 1020.1
20260901135525 29 0 0.0 0.0 0.00 0.00 0.00 80 1020.1
20260901135020 29 0 0.0 0.0 0.00 0.00 0.00 79 1020.1
20260901134545 28 0 0.0 0.0 0.00 0.00 0.00 80 1020.1
20260901134020 28 0 0.0 0.0 0.00 0.00 0.00 82 1020.0
20260901133523 28 0 0.0 0.0 0.00 0.00 0.00 85 1020.0
20260901133043 27 0 0.0 0.0 0.00 0.00 0.00 86 1020.0
20260901132524 27 0 0.0 0.0 0.00 0.00 0.00 88 1020.1
20260901132026 27 0 0.0 0.0 0.00 0.00 0.00 90 1020.0
20260901131545 26 0 0.0 0.0 0.00 0.00 0.00 92 1020.0
20260901131025 26 0 0.0 0.0 0.00 0.00 0.00 94 1019.9
20260901130528 25 0 0.0 0.0 0.00 0.00 0.00 95 1019.9
20260901130046 25 0 0.0 0.0 0.00 0.00 0.00 95 1020.0
20260901125524 25 0 0.0 0.0 0.00 0.00 0.00 95 1020.1
20260901125024 25 0 0.0 0.0 0.00 0.00 0.00 96 1020.1
20260901124547 25 0 0.0 0.0 0.00 0.00 0.00 96 1020.1
20260901124024 24 0 0.0 0.0 0.00 0.00 0.00 96 1020.1
20260901123526 24 0 0.0 0.0 0.00 0.00 0.00 96 1020.2
20260901123044 23 0 0.0 0.0 0.00 0.00 0.00 95 1020.1
20260901122527 23 0 0.0 0.0 0.00 0.00 0.00 95 1020.1
20260901122028 23 0 0.0 0.0 0.00 0.00 0.00 95 1020.0
20260901121543 23 0 0.0 0.0 0.00 0.00 0.00 95 1019.9
20260901121025 23 0 0.0 0.0 0.00 0.00 0.00 94 1019.9
20260901120525 23 0 0.0 0.0 0.00 0.00 0.00 94 1019.9
20260901120100 23 0 0.0 0.0 0.00 0.00 0.00 94 1020.0
20260901115526 23 0 0.0 0.0 0.00 0.00 0.00 94 1020.0
20260901115028 23 0 0.0 0.0 0.00 0.00 0.00 93 1019.9
20260901114545 22 0 0.0 0.0 0.00 0.00 0.00 93 1019.9
20260901114024 22 0 0.0 0.0 0.00 0.00 0.00 93 1019.8
20260901113523 22 0 0.0 0.0 0.00 0.00 0.00 93 1019.7
20260901113054 22 0 0.0 0.0 0.00 0.00 0.00 93 1019.7
20260901112526 22 0 0.0 0.0 0.00 0.00 0.00 93 1019.6
20260901112025 22 0 0.0 0.0 0.00 0.00 0.00 93 1019.5
20260901111543 22 0 0.0 0.0 0.00 0.00 0.00 93 1019.4
20260901111026 22 0 0.0 0.0 0.00 0.00 0.00 93 1019.4
20260901110528 22 0 0.0 0.0 0.00 0.00 0.00 92 1019.4
20260901110050 22 0 0.0 0.0 0.00 0.00 0.00 92 1019.3
20260901105519 22 0 0.0 0.0 0.00 0.00 0.00 92 1019.3
20260901105020 22 0 0.0 0.0 0.00 0.00 0.00 92 1019.3
20260901104543 22 0 0.0 0.0 0.00 0.00 0.00 92 1019.3
20260901104019 22 0 0.0 0.0 0.00 0.00 0.00 92 1019.3
20260901103525 23 0 0.0 0.0 0.00 0.00 0.00 92 1019.3
20260901103054 23 0 0.0 0.0 0.00 0.00 0.00 92 1019.3
20260901102523 23 0 0.0 0.0 0.00 0.00 0.00 92 1019.3
20260901102026 23 0 0.0 0.0 0.00 0.00 0.00 92 1019.4
20260901101543 23 0 0.0 0.0 0.00 0.00 0.00 92 1019.3
20260901101025 23 0 0.0 0.0 0.00 0.00 0.00 92 1019.3
20260901100527 23 0 0.0 0.0 0.00 0.00 0.00 92 1019.1
20260901100045 23 0 0.0 0.0 0.00 0.00 0.00 92 1019.1
20260901095525 23 0 0.0 0.0 0.00 0.00 0.00 92 1019.1
20260901095025 23 0 0.0 0.0 0.00 0.00 0.00 92 1019.1
20260901094548 23 0 0.0 0.0 0.00 0.00 0.00 92 1019.1
20260901094024 23 0 0.0 0.0 0.00 0.00 0.00 92 1019.1
20260901093526 23 0 0.0 0.0 0.00 0.00 0.00 91 1019.0
20260901093050 23 0 0.0 0.0 0.00 0.00 0.00 91 1019.0
20260901092518 23 0 0.0 0.0 0.00 0.00 0.00 91 1018.9
20260901092019 23 0 0.0 0.0 0.00 0.00 0.00 91 1019.1
20260901091547 23 0 0.0 0.0 0.00 0.00 0.00 91 1019.0
20260901091019 23 0 0.0 0.0 0.00 0.00 0.00 91 1019.0
20260901090529 23 0 0.0 0.0 0.00 0.00 0.00 91 1019.1
20260901090051 23 0 0.0 0.0 0.00 0.00 0.00 91 1018.9
20260901085523 23 0 0.0 0.0 0.00 0.00 0.00 91 1019.0
20260901085025 23 0 0.0 0.0 0.00 0.00 0.00 91 1018.9
20260901084540 23 0 0.0 0.0 0.00 0.00 0.00 91 1018.9
20260901084026 23 0 0.0 0.0 0.00 0.00 0.00 91 1019.0
20260901083527 23 0 0.0 0.0 0.00 0.00 0.00 91 1019.0
20260901083046 23 0 0.0 0.0 0.00 0.00 0.00 91 1019.1
20260901082523 23 0 0.0 0.0 0.00 0.00 0.00 91 1019.1
20260901082025 23 0 0.0 0.0 0.00 0.00 0.00 91 1019.1
20260901081544 23 0 0.0 0.0 0.00 0.00 0.00 91 1019.0
20260901081026 23 0 0.0 0.0 0.00 0.00 0.00 91 1018.9
20260901080522 23 0 0.0 0.0 0.00 0.00 0.00 91 1019.0
20260901080055 23 0 0.0 0.0 0.00 0.00 0.00 91 1019.1
20260901075524 23 0 0.0 0.0 0.00 0.00 0.00 90 1019.1
20260901075024 23 0 0.0 0.0 0.00 0.00 0.00 90 1019.1
20260901074548 23 0 0.0 0.0 0.00 0.00 0.00 90 1019.2
20260901074024 23 0 0.0 0.0 0.00 0.00 0.00 90 1019.2
20260901073523 23 0 0.0 0.0 0.00 0.00 0.00 91 1019.2
20260901073045 23 0 0.0 0.0 0.00 0.00 0.00 90 1019.2
20260901072525 23 0 0.0 0.0 0.00 0.00 0.00 90 1019.3
20260901072022 23 0 0.0 0.0 0.00 0.00 0.00 90 1019.3
20260901071550 23 0 0.0 0.0 0.00 0.00 0.00 90 1019.3
20260901071023 24 0 0.0 0.0 0.00 0.00 0.00 90 1019.3
20260901070527 24 0 0.0 0.0 0.00 0.00 0.00 90 1019.3
20260901070048 24 0 0.0 0.0 0.00 0.00 0.00 90 1019.3
20260901065523 24 0 0.0 0.0 0.00 0.00 0.00 90 1019.3
20260901065024 24 0 0.0 0.0 0.00 0.00 0.00 90 1019.4
20260901064543 24 0 0.0 0.0 0.00 0.00 0.00 90 1019.4
20260901064025 24 0 0.0 0.0 0.00 0.00 0.00 89 1019.5
20260901063521 24 0 0.0 0.0 0.00 0.00 0.00 89 1019.5
20260901063050 24 0 0.0 0.0 0.00 0.00 0.00 89 1019.4
20260901062525 24 0 0.0 0.0 0.00 0.00 0.00 89 1019.5
20260901062024 24 0 0.0 0.0 0.00 0.00 0.00 89 1019.5
20260901061546 24 0 0.0 0.0 0.00 0.00 0.00 89 1019.6
20260901061024 24 0 0.0 0.0 0.00 0.00 0.00 89 1019.7
20260901060526 24 0 0.0 0.0 0.00 0.00 0.00 89 1019.8
20260901060046 24 0 0.0 0.0 0.00 0.00 0.00 89 1019.8
20260901055525 24 0 0.0 0.0 0.00 0.00 0.00 89 1019.8
20260901055025 24 0 0.0 0.0 0.00 0.00 0.00 89 1019.7
20260901054543 24 0 0.0 0.0 0.00 0.00 0.00 88 1019.7
20260901054025 24 0 0.0 0.0 0.00 0.00 0.00 88 1019.7
20260901053521 24 0 0.0 0.0 0.00 0.00 0.00 88 1019.8
20260901053045 24 0 0.0 0.0 0.00 0.00 0.00 87 1019.8
20260901052524 25 0 0.0 0.0 0.00 0.00 0.00 87 1019.8
20260901052027 25 0 0.0 0.0 0.00 0.00 0.00 87 1019.8
20260901051551 25 0 0.0 0.0 0.00 0.00 0.00 87 1019.8
20260901051018 25 0 0.0 0.0 0.00 0.00 0.00 87 1019.9
20260901050527 25 0 0.0 0.0 0.00 0.00 0.00 87 1019.8
20260901050045 25 0 0.0 0.0 0.00 0.00 0.00 87 1019.8
20260901045521 25 0 0.0 0.0 0.00 0.00 0.00 87 1019.9
20260901045023 25 0 0.0 0.0 0.00 0.00 0.00 86 1019.9
20260901044541 25 0 0.0 0.0 0.00 0.00 0.00 86 1019.9
20260901044024 25 0 0.0 0.0 0.00 0.00 0.00 86 1019.7
20260901043524 25 0 0.0 0.0 0.00 0.00 0.00 86 1019.8
20260901043044 25 0 0.0 0.0 0.00 0.00 0.00 86 1019.8
20260901042522 25 0 0.0 0.0 0.00 0.00 0.00 85 1019.8
20260901042026 25 0 0.0 0.0 0.00 0.00 0.00 85 1019.9
20260901041542 25 0 0.0 0.0 0.00 0.00 0.00 85 1019.7
20260901041023 25 0 0.0 0.0 0.00 0.00 0.00 85 1019.8
20260901040519 25 0 0.0 0.0 0.00 0.00 0.00 84 1019.8
20260901040045 25 0 0.0 0.0 0.00 0.00 0.00 84 1019.8
20260901035519 25 0 0.0 0.0 0.00 0.00 0.00 84 1019.7
20260901035023 25 0 0.0 0.0 0.00 0.00 0.00 84 1019.7
20260901034543 25 0 0.0 0.0 0.00 0.00 0.00 84 1019.8
20260901034018 25 0 0.0 0.0 0.00 0.00 0.00 84 1019.8
20260901033523 25 0 0.0 0.0 0.00 0.00 0.00 83 1019.7
20260901033045 25 0 0.0 0.0 0.00 0.00 0.00 83 1019.7
20260901032523 25 0 0.0 0.0 0.00 0.00 0.00 83 1019.5
20260901032027 26 0 0.0 0.0 0.00 0.00 0.00 83 1019.5
20260901031544 26 0 0.0 0.0 0.00 0.00 0.00 82 1019.5
20260901031018 26 0 0.0 0.0 0.00 0.00 0.00 82 1019.6
20260901030522 26 0 0.0 0.0 0.00 0.00 0.00 82 1019.5
20260901030043 26 0 0.0 0.0 0.00 0.00 0.00 82 1019.5
20260901025526 26 0 0.0 0.0 0.00 0.00 0.00 82 1019.6
20260901025026 26 0 0.0 0.0 0.00 0.00 0.00 81 1019.6
20260901024543 26 0 0.0 0.0 0.00 0.00 0.00 81 1019.5
20260901024023 26 0 0.0 0.0 0.00 0.00 0.00 81 1019.5
20260901023523 26 0 0.0 0.0 0.00 0.00 0.00 81 1019.5
20260901023044 26 0 0.0 0.0 0.00 0.00 0.00 81 1019.7
20260901022524 26 0 0.0 0.0 0.00 0.00 0.00 81 1019.6
20260901022027 26 0 0.0 0.0 0.00 0.00 0.00 81 1019.5
20260901021542 26 0 0.0 0.0 0.00 0.00 0.00 81 1019.4
20260901021022 26 0 0.0 0.0 0.00 0.00 0.00 80 1019.4
20260901020523 26 0 0.0 0.0 0.00 0.00 0.00 79 1019.4
20260901020043 26 0 0.0 0.0 0.00 0.00 0.00 79 1019.4
20260901015524 26 0 0.0 0.0 0.00 0.00 0.00 79 1019.3
20260901015025 27 0 0.0 0.0 0.00 0.00 0.00 78 1019.3
20260901014551 27 0 0.0 0.0 0.00 0.00 0.00 78 1019.3
20260901014024 27 0 0.0 0.0 0.00 0.00 0.00 77 1019.2
20260901013524 27 0 0.0 0.0 0.00 0.00 0.00 77 1019.0
20260901013050 27 0 0.0 0.0 0.00 0.00 0.00 77 1018.8
20260901012524 27 0 0.0 0.0 0.00 0.00 0.00 76 1018.8
20260901012021 27 0 0.0 0.0 0.00 0.00 0.00 76 1018.7
20260901011543 27 0 0.0 0.0 0.00 0.00 0.00 76 1018.6
20260901011025 27 0 0.0 0.0 0.00 0.00 0.00 75 1018.4
20260901010525 27 0 0.0 0.0 0.00 0.00 0.00 74 1018.3
20260901010046 27 0 0.0 0.0 0.00 0.00 0.00 73 1018.3
20260901005523 28 0 0.0 0.0 0.00 0.00 0.00 73 1018.3
20260901005027 28 0 0.0 0.0 0.00 0.00 0.00 73 1018.2
20260901004547 28 0 0.0 0.0 0.00 0.00 0.00 72 1018.3
20260901004024 28 0 0.0 0.0 0.00 0.00 0.00 71 1018.2
20260901003522 28 0 0.0 0.0 0.00 0.00 0.00 71 1018.1
20260901003043 28 0 0.0 0.0 0.00 0.00 0.00 71 1018.1
20260901002524 28 0 0.0 0.0 0.00 0.00 0.00 70 1018.1
20260901002022 29 0 0.0 0.0 0.00 0.00 0.00 69 1018.1
20260901001546 29 0 0.0 0.0 0.00 0.00 0.00 69 1018.1
20260901001020 29 0 0.0 0.0 0.00 0.00 0.00 68 1018.1
20260901000525 30 0 0.0 0.0 0.00 0.00 0.00 68 1018.1
20260901000045 30 0 0.0 0.0 0.00 0.00 0.00 67 1018.1
20260831235525 30 0 0.0 0.0 0.00 0.00 0.00 67 1018.0
20260831235026 30 0 0.0 0.0 0.00 0.00 0.00 67 1018.1
20260831234550 30 0 0.0 0.0 0.00 0.00 0.00 66 1018.0
20260831234025 31 0 0.0 0.0 0.00 0.00 0.00 65 1018.0
20260831233522 31 0 0.0 0.0 0.00 0.00 0.00 64 1017.9
20260831233047 31 0 0.0 0.0 0.00 0.00 0.00 63 1018.0
20260831232524 31 0 0.0 0.0 0.00 0.00 0.00 62 1017.9
20260831232025 32 0 0.0 0.0 0.00 0.00 0.00 62 1018.0
20260831231544 32 0 0.0 0.0 0.00 0.00 0.00 61 1018.0
20260831231030 32 0 0.0 0.0 0.00 0.00 0.00 59 1018.0
20260831230524 32 0 0.0 0.0 0.00 0.00 0.00 59 1018.1
20260831230044 32 0 0.0 0.0 0.00 0.00 0.00 58 1018.2
20260831225522 33 0 0.0 0.0 0.00 0.00 0.00 58 1018.2
20260831225024 33 0 0.0 0.0 0.00 0.00 0.00 57 1018.2
20260831224542 33 0 0.0 0.0 0.00 0.00 0.00 56 1018.1
20260831224028 33 0 0.0 0.0 0.00 0.00 0.00 56 1018.2
20260831223524 33 0 0.0 0.0 0.00 0.00 0.00 55 1018.1
20260831223053 34 0 0.0 0.0 0.00 0.00 0.00 55 1018.2
20260831222526 34 0 0.0 0.0 0.00 0.00 0.00 56 1018.1
20260831222024 34 0 0.0 0.0 0.00 0.00 0.00 54 1018.1
20260831221543 34 0 0.0 0.0 0.00 0.00 0.00 53 1018.2
20260831221025 34 0 0.0 0.0 0.00 0.00 0.00 55 1018.2
20260831220525 34 0 0.0 0.0 0.00 0.00 0.00 53 1018.2